Temp
88 99 97 89 74 76 70 68 77 73 74 78 78 76 74 76 69 62 76 80 81 80 80 78 74 74 73 74 73 72 73 73 73 73 73 73 73 73 73 73 73 74 73 73 73 73 72 71 71
95 97 92 86 72 68 69 75 71 74 76 78 77 77 76 70 77 72 74 80 82 82 82 79 74 74 73 73 72 72 72 72 73 73 72 73 72 73 73 73 72 72 73 73 72 72 71 70 70
95 96 84 79 74 68 68 74 74 75 77 76 75 78 77 72 76 77 81 81 83 81 82 77 74 73 72 72 72 71 71 71 72 72 72 72 72 72 72 72 72 72 72 72 72 71 71 70 69
93 91 88 74 71 73 74 76 76 74 76 77 78 74 78 80 78 82 81 82 81 81 82 75 73 73 72 71 71 71 70 70 71 71 71 71 71 72 71 71 71 71 71 71 71 71 70 69 69
93 87 75 71 71 74 78 79 78 75 75 76 77 73 74 77 81 81 80 82 80 81 81 77 73 72 72 71 71 70 69 69 70 70 70 69 70 70 70 70 70 71 70 70 70 70 69 69 68
81 84 71 69 72 75 79 80 78 76 77 76 75 75 74 79 78 80 82 81 83 80 81 78 73 72 72 71 70 69 69 68 69 69 69 69 68 68 68 69 69 70 70 69 69 69 69 68 68
77 76 71 72 71 72 75 81 78 77 76 76 79 74 76 76 80 81 82 83 83 82 80 80 78 74 72 71 70 69 68 68 68 68 68 67 67 67 67 67 69 69 69 69 68 68 68 67 67
81 78 71 73 70 70 77 78 79 78 76 80 81 75 74 79 80 81 82 81 81 80 80 80 79 79 77 74 70 69 68 67 67 67 67 64 65 65 65 66 67 67 67 67 67 66 66 66 66
83 72 69 71 70 73 78 75 78 80 78 77 79 79 79 80 79 78 78 78 78 78 78 79 79 79 78 77 72 69 68 67 67 67 66 66 72 72 70 65 64 65 65 65 65 65 64 64 65
78 71 72 78 78 76 77 77 78 75 76 76 76 79 78 78 77 75 74 74 75 75 76 78 78 78 77 77 75 74 74 73 73 72 73 74 74 73 70 66 63 63 63 63 63 63 64 64 71
78 72 76 75 77 78 76 75 79 75 73 79 78 80 76 76 76 76 77 77 76 77 76 77 76 77 76 76 75 75 74 73 73 72 72 72 72 73 72 72 70 70 64 70 68 68 70 70 70
73 76 76 75 74 75 74 78 75 76 78 82 82 83 78 76 77 78 78 79 79 77 76 77 76 75 76 76 75 76 74 73 72 72 71 69 70 71 72 71 71 69 71 69 69 70 70 70 71
76 75 75 75 74 75 75 74 75 76 82 83 81 79 79 79 79 81 82 82 81 79 77 76 76 75 76 75 75 75 75 74 74 72 71 70 69 69 71 70 70 70 70 69 69 69 69 70 71
76 76 75 75 75 75 71 74 71 78 81 82 78 78 80 80 80 81 81 81 81 81 79 78 77 74 76 75 74 74 74 75 74 73 72 72 71 70 71 71 70 70 70 69 69 68 67 68 70
76 71 73 74 75 73 73 69 70 80 79 79 79 80 80 81 82 81 81 81 82 82 81 78 77 76 73 73 74 72 72 73 73 72 73 73 72 71 71 70 69 70 70 68 67 68 68 67 68
72 73 68 73 73 73 70 69 77 81 79 78 81 82 80 81 81 83 83 82 83 83 81 80 78 77 74 73 73 73 73 72 72 73 73 73 72 71 70 69 69 70 68 67 67 67 66 66 67
72 70 68 69 74 72 70 70 78 80 78 78 81 82 82 81 82 83 83 83 83 83 82 79 78 76 76 75 74 74 73 73 73 73 73 73 72 71 69 69 69 70 68 66 65 65 65 64 65
68 69 70 68 71 71 69 70 78 80 78 78 81 83 83 82 82 84 83 83 82 82 82 80 78 77 76 75 75 74 73 73 73 73 72 73 72 71 69 69 69 69 67 65 65 64 65 64 63
70 69 68 73 71 66 70 72 76 81 80 77 79 82 84 83 86 86 83 82 81 80 78 78 77 77 76 74 72 71 70 71 71 72 72 72 72 71 69 68 68 68 66 66 66 65 63 62 64
69 68 69 72 69 67 71 71 78 81 79 80 81 82 83 84 86 84 83 81 80 79 78 77 76 76 76 75 74 74 74 74 74 73 73 72 71 70 70 68 67 68 66 65 64 64 61 62 64
69 66 68 65 69 72 67 70 75 79 80 79 80 83 85 84 84 84 82 81 80 80 79 77 76 76 76 75 74 72 72 71 68 69 70 71 72 71 69 69 68 68 67 64 64 63 61 58 63
64 67 65 64 64 64 69 65 74 77 76 78 81 81 81 82 84 86 84 81 80 80 81 79 78 77 77 75 72 70 67 66 69 70 72 71 71 71 70 69 69 68 68 66 65 66 63 61 57
64 65 64 64 64 65 67 62 76 79 74 78 82 83 83 83 83 82 84 83 83 81 80 80 78 77 76 75 72 70 69 70 72 72 71 71 71 71 70 70 69 68 68 68 67 66 64 63 60
67 64 65 65 64 57 69 65 72 72 77 80 83 82 82 82 82 84 84 84 83 81 78 76 76 76 75 73 71 68 68 69 70 70 69 69 70 70 70 69 69 69 68 67 66 66 65 64 62
64 63 59 56 55 59 64 62 72 80 82 84 82 82 82 83 82 81 79 79 79 76 75 75 75 74 75 73 71 69 67 67 67 68 69 69 70 69 69 69 67 66 66 66 67 65 64 64 62
63 66 61 51 57 62 61 59 72 83 82 85 85 84 82 81 83 81 80 78 78 77 75 74 74 74 75 74 71 70 69 68 68 68 69 70 70 71 71 70 68 67 67 66 65 64 63 64 62
63 57 66 60 61 58 67 71 77 75 76 77 79 79 79 81 81 80 80 80 80 79 78 77 75 75 77 75 73 71 71 70 69 70 70 69 69 69 69 69 68 67 66 66 65 63 63 63 62
62 66 58 60 51 52 66 68 72 68 73 75 77 77 79 81 81 81 81 81 82 82 80 79 79 77 77 76 75 74 74 74 73 71 69 69 69 69 67 66 66 65 65 66 64 63 63 62 62
59 59 60 60 62 57 59 68 79 78 77 77 79 80 81 81 81 81 82 82 81 82 80 79 78 78 78 76 76 75 74 75 75 73 72 71 70 69 68 67 66 65 65 65 64 63 63 62 62
65 65 66 59 58 60 58 63 78 80 83 82 81 82 83 83 82 84 83 82 81 79 79 79 80 79 79 79 77 76 76 75 74 74 74 74 72 71 69 68 67 66 66 65 64 63 64 63 61
MSLP
1013.49 1012.44 1012.20 1011.95 1011.37 1010.24 1010.34 1011.90 1012.57 1013.02 1013.44 1014.66 1015.02 1014.96 1015.18 1015.69 1016.53 1018.32 1020.21 1020.47 1020.70 1021.12 1021.83 1022.60 1023.11 1023.34 1023.59 1023.58 1023.85 1023.94 1023.83 1023.83 1023.70 1023.59 1023.49 1023.49 1023.41 1023.33 1023.18 1023.14 1023.14 1022.81 1022.78 1022.67 1022.51 1022.30 1022.31 1022.35 1022.21
1013.09 1012.33 1012.09 1011.03 1010.39 1009.52 1010.37 1011.85 1012.71 1013.74 1014.63 1015.17 1015.47 1015.43 1015.34 1016.52 1017.72 1019.23 1020.00 1020.64 1020.73 1021.11 1021.49 1022.32 1023.26 1023.47 1023.81 1023.86 1024.09 1024.26 1024.17 1024.22 1024.06 1024.01 1023.97 1023.88 1023.84 1023.68 1023.65 1023.59 1023.58 1023.37 1023.10 1022.94 1022.85 1022.78 1022.90 1022.79 1022.66
1012.98 1012.32 1011.40 1010.44 1010.01 1009.92 1010.84 1012.25 1013.37 1014.43 1015.09 1015.26 1015.36 1016.07 1016.17 1017.20 1018.32 1018.96 1019.85 1020.57 1020.79 1021.31 1021.70 1022.92 1023.48 1023.73 1023.99 1024.17 1024.30 1024.47 1024.53 1024.53 1024.36 1024.40 1024.37 1024.25 1024.16 1024.05 1023.96 1023.90 1023.76 1023.76 1023.57 1023.39 1023.29 1023.20 1023.14 1023.16 1023.04
1012.41 1011.61 1011.10 1010.64 1009.89 1011.14 1011.66 1012.68 1013.73 1014.47 1015.19 1015.63 1015.63 1015.64 1017.18 1018.28 1018.49 1018.89 1020.18 1020.61 1020.92 1021.50 1021.92 1023.31 1023.66 1023.91 1024.18 1024.43 1024.59 1024.71 1024.84 1024.84 1024.74 1024.79 1024.64 1024.58 1024.55 1024.39 1024.40 1024.26 1024.15 1023.95 1023.85 1023.72 1023.56 1023.52 1023.54 1023.52 1023.47
1012.36 1011.46 1010.62 1010.41 1010.59 1011.70 1012.28 1013.17 1013.77 1014.11 1014.77 1015.25 1015.77 1015.86 1016.98 1018.65 1019.10 1019.79 1020.30 1020.62 1021.00 1021.46 1022.00 1023.09 1023.67 1024.04 1024.20 1024.52 1024.74 1024.93 1025.09 1025.13 1025.01 1025.07 1024.99 1025.06 1024.93 1024.86 1024.74 1024.65 1024.47 1024.26 1024.25 1024.18 1024.01 1023.93 1023.97 1023.87 1023.83
1011.99 1011.46 1010.61 1010.17 1010.64 1012.10 1012.66 1013.44 1013.85 1014.14 1014.69 1015.41 1015.67 1015.95 1017.18 1018.74 1019.30 1019.87 1020.28 1020.61 1020.97 1021.59 1022.00 1022.88 1023.77 1024.05 1024.21 1024.57 1024.81 1025.07 1025.25 1025.32 1025.28 1025.29 1025.28 1025.33 1025.34 1025.29 1025.13 1024.95 1024.77 1024.49 1024.45 1024.37 1024.37 1024.24 1024.16 1024.18 1024.20
1012.12 1011.40 1010.83 1010.62 1011.04 1012.22 1012.75 1013.57 1013.74 1014.12 1014.70 1015.09 1015.88 1015.55 1017.22 1018.59 1019.16 1019.78 1020.18 1020.44 1020.97 1021.54 1022.07 1022.44 1023.00 1023.79 1024.25 1024.56 1024.86 1025.11 1025.31 1025.45 1025.47 1025.47 1025.52 1025.64 1025.60 1025.54 1025.45 1025.29 1025.01 1024.89 1024.75 1024.69 1024.74 1024.67 1024.48 1024.49 1024.45
1012.65 1011.97 1011.26 1011.43 1011.51 1012.03 1013.25 1013.83 1014.38 1014.46 1014.82 1015.93 1016.01 1015.41 1016.46 1017.92 1019.25 1019.72 1020.15 1020.52 1021.03 1021.61 1022.05 1022.29 1022.60 1023.01 1023.38 1024.13 1024.84 1025.09 1025.34 1025.41 1025.45 1025.50 1025.65 1025.83 1025.72 1025.56 1025.59 1025.44 1025.37 1025.23 1025.16 1025.08 1025.05 1025.03 1025.00 1024.77 1024.70
1013.15 1012.19 1011.34 1011.47 1011.99 1012.34 1013.68 1013.92 1014.68 1015.18 1015.14 1015.73 1016.03 1016.22 1017.39 1018.30 1019.37 1019.71 1020.13 1020.55 1021.13 1021.66 1021.99 1022.23 1022.55 1022.79 1023.12 1023.45 1024.43 1025.05 1025.25 1025.40 1025.46 1025.51 1025.59 1025.54 1024.85 1024.85 1025.09 1025.50 1025.64 1025.57 1025.56 1025.41 1025.30 1025.33 1025.26 1025.05 1024.74
1012.72 1012.07 1011.49 1012.15 1012.55 1012.84 1013.70 1013.86 1014.12 1014.93 1014.77 1015.23 1015.88 1016.97 1017.86 1018.55 1019.11 1019.37 1019.85 1020.18 1020.80 1021.40 1021.92 1022.15 1022.47 1022.76 1023.26 1023.52 1023.92 1024.24 1024.39 1024.58 1024.67 1024.87 1024.89 1024.78 1024.66 1024.74 1025.24 1025.38 1025.73 1025.76 1025.70 1025.62 1025.48 1025.37 1025.13 1024.85 1024.05
1012.68 1012.21 1012.59 1013.30 1013.60 1013.74 1013.77 1014.17 1014.45 1014.41 1014.23 1014.36 1014.66 1015.65 1017.54 1018.17 1018.56 1018.84 1019.28 1019.73 1020.27 1020.94 1021.60 1022.07 1022.56 1022.76 1023.15 1023.33 1023.63 1023.86 1024.16 1024.33 1024.49 1024.71 1024.88 1024.82 1024.90 1024.68 1024.76 1024.78 1024.86 1024.92 1025.29 1024.70 1024.88 1024.72 1024.32 1024.14 1024.11
1012.73 1013.22 1013.37 1013.91 1014.40 1014.23 1014.08 1014.10 1014.13 1014.25 1013.94 1014.51 1014.89 1015.26 1016.68 1017.43 1017.79 1018.14 1018.45 1018.99 1019.56 1020.37 1021.16 1021.86 1022.32 1022.74 1022.92 1023.14 1023.51 1023.49 1023.75 1024.07 1024.25 1024.51 1024.74 1024.93 1024.74 1024.57 1024.55 1024.57 1024.61 1024.75 1024.55 1024.52 1024.43 1024.24 1024.15 1024.03 1023.81
1012.76 1013.39 1013.87 1014.33 1014.64 1014.62 1014.68 1014.34 1014.03 1013.70 1013.94 1014.35 1015.09 1015.61 1016.00 1016.59 1016.96 1017.41 1017.80 1018.36 1018.97 1019.65 1020.63 1021.46 1022.12 1022.41 1022.74 1023.04 1023.19 1023.33 1023.47 1023.79 1023.96 1024.23 1024.53 1024.78 1024.71 1024.71 1024.51 1024.48 1024.45 1024.43 1024.41 1024.34 1024.26 1024.18 1024.09 1023.83 1023.47
1013.32 1013.52 1013.83 1014.30 1014.37 1014.59 1014.70 1014.03 1014.46 1013.22 1013.71 1013.86 1014.75 1015.16 1015.41 1015.86 1016.31 1016.77 1017.36 1017.84 1018.49 1019.14 1019.98 1020.86 1021.52 1022.28 1022.49 1022.75 1023.04 1023.26 1023.43 1023.52 1023.77 1023.89 1024.09 1024.28 1024.47 1024.40 1024.25 1024.19 1024.24 1024.25 1024.17 1024.20 1024.10 1024.01 1023.99 1023.82 1023.48
1013.45 1013.31 1013.63 1013.84 1014.04 1014.26 1014.63 1013.64 1013.10 1012.96 1013.56 1013.56 1013.93 1014.37 1014.76 1015.17 1015.71 1016.17 1016.86 1017.39 1017.97 1018.64 1019.43 1020.25 1020.94 1021.57 1022.36 1022.62 1022.85 1023.23 1023.43 1023.55 1023.53 1023.62 1023.75 1023.87 1023.98 1024.00 1023.99 1024.07 1023.99 1024.03 1023.99 1024.18 1024.18 1023.91 1023.74 1023.63 1023.31
1012.99 1012.80 1012.39 1013.06 1013.81 1014.20 1014.51 1012.17 1012.04 1012.55 1012.87 1012.92 1013.00 1013.33 1013.93 1014.55 1015.17 1015.66 1016.28 1017.07 1017.60 1018.16 1018.90 1019.73 1020.45 1021.10 1021.79 1022.33 1022.62 1022.89 1022.99 1023.27 1023.31 1023.23 1023.27 1023.40 1023.65 1023.83 1023.94 1023.86 1023.77 1023.80 1023.92 1024.02 1023.96 1023.81 1023.69 1023.47 1023.07
1012.19 1011.07 1011.69 1012.59 1013.43 1013.60 1013.59 1011.79 1011.55 1012.22 1012.37 1012.23 1012.23 1012.47 1013.00 1013.78 1014.46 1015.02 1015.81 1016.55 1017.16 1017.76 1018.35 1019.19 1020.04 1020.69 1021.23 1021.78 1022.11 1022.31 1022.54 1022.62 1022.77 1022.84 1022.83 1022.99 1023.25 1023.39 1023.55 1023.52 1023.43 1023.43 1023.54 1023.75 1023.75 1023.49 1023.43 1023.22 1022.79
1011.04 1011.08 1011.44 1011.88 1012.87 1013.17 1012.61 1011.64 1011.02 1011.18 1011.64 1011.54 1011.55 1011.69 1012.05 1012.78 1013.41 1014.30 1015.26 1016.09 1016.81 1017.51 1018.05 1018.75 1019.48 1020.18 1020.70 1021.15 1021.56 1021.79 1021.94 1022.13 1022.30 1022.30 1022.39 1022.52 1022.73 1022.93 1023.11 1023.06 1022.98 1023.03 1023.11 1023.27 1023.25 1023.22 1023.08 1022.91 1022.79
1012.32 1011.97 1011.62 1011.61 1012.81 1012.90 1011.59 1010.72 1010.22 1010.05 1010.29 1010.70 1010.81 1010.85 1011.14 1011.81 1012.52 1013.43 1014.69 1015.70 1016.49 1017.18 1017.83 1018.29 1018.91 1019.53 1020.11 1020.54 1020.89 1021.21 1021.34 1021.52 1021.62 1021.71 1021.91 1021.96 1022.05 1022.18 1022.40 1022.48 1022.45 1022.42 1022.57 1022.57 1022.67 1022.71 1022.66 1022.64 1022.53
1012.75 1012.27 1011.63 1011.86 1012.72 1012.72 1011.00 1009.88 1009.22 1008.97 1009.46 1009.71 1009.89 1010.13 1010.48 1011.04 1011.84 1012.97 1014.03 1015.00 1015.85 1016.50 1017.22 1017.93 1018.45 1019.03 1019.55 1019.91 1020.27 1020.47 1020.51 1020.55 1020.61 1020.83 1021.12 1021.31 1021.39 1021.49 1021.61 1021.75 1021.82 1021.87 1021.93 1022.11 1022.30 1022.30 1022.35 1022.27 1022.33
1012.80 1012.82 1012.48 1012.66 1012.38 1011.66 1011.09 1008.57 1007.75 1008.15 1008.77 1009.33 1009.73 1009.75 1009.89 1010.50 1011.20 1012.20 1013.38 1014.23 1015.13 1015.69 1016.32 1017.08 1017.80 1018.40 1018.92 1019.42 1019.81 1020.16 1020.27 1020.42 1020.63 1020.56 1020.55 1020.39 1020.53 1020.76 1020.97 1021.04 1021.06 1021.10 1021.21 1021.37 1021.63 1021.81 1021.96 1021.89 1021.66
1013.27 1013.68 1013.64 1013.21 1012.37 1010.71 1010.75 1007.90 1006.75 1007.12 1007.82 1008.33 1008.70 1009.24 1009.76 1010.38 1010.92 1011.27 1012.25 1013.36 1014.24 1014.92 1015.52 1016.36 1017.06 1017.70 1018.26 1018.85 1019.31 1019.57 1019.78 1019.82 1019.76 1019.82 1019.83 1019.86 1020.02 1020.04 1020.26 1020.43 1020.47 1020.46 1020.44 1020.65 1020.78 1020.93 1021.09 1021.47 1021.50
1014.23 1014.37 1013.97 1013.41 1012.34 1011.13 1009.67 1009.05 1005.53 1006.16 1006.61 1007.03 1007.62 1008.23 1009.10 1009.77 1010.42 1011.05 1011.61 1012.56 1013.44 1014.35 1015.06 1015.76 1016.52 1017.15 1017.68 1018.22 1018.81 1019.06 1019.16 1019.23 1019.20 1019.17 1019.13 1019.16 1019.19 1019.44 1019.61 1019.61 1019.73 1019.81 1019.80 1019.76 1019.88 1020.06 1020.36 1020.68 1020.81
1015.09 1014.60 1013.91 1013.21 1012.15 1010.47 1008.40 1008.13 1004.96 1005.33 1005.31 1005.96 1006.88 1007.89 1008.76 1009.48 1010.12 1010.65 1011.44 1012.20 1012.96 1013.94 1014.81 1015.53 1015.99 1016.56 1017.20 1017.74 1018.16 1018.57 1018.69 1018.75 1018.74 1018.72 1018.77 1018.74 1018.77 1018.72 1018.71 1019.09 1019.13 1019.01 1018.96 1018.99 1019.05 1019.25 1019.50 1019.63 1019.93
1015.14 1014.15 1012.58 1011.93 1011.15 1009.01 1008.81 1007.97 1004.90 1004.61 1004.87 1005.27 1006.37 1007.45 1008.39 1009.10 1009.79 1010.54 1011.34 1012.07 1012.77 1013.70 1014.54 1015.16 1015.61 1016.00 1016.58 1017.15 1017.63 1017.99 1018.30 1018.48 1018.48 1018.42 1018.25 1018.05 1017.93 1017.89 1017.96 1018.11 1018.37 1018.49 1018.55 1018.55 1018.53 1018.62 1018.66 1018.90 1019.04
1014.26 1013.45 1011.96 1010.76 1009.20 1008.18 1008.78 1006.58 1004.57 1004.34 1005.21 1005.48 1006.22 1007.14 1008.11 1008.86 1009.47 1010.23 1010.96 1011.75 1012.45 1013.27 1014.05 1014.58 1015.00 1015.40 1015.81 1016.35 1016.88 1017.34 1017.62 1017.84 1017.86 1017.84 1017.75 1017.54 1017.39 1017.28 1017.16 1017.29 1017.48 1017.74 1017.90 1018.00 1018.13 1018.21 1018.20 1018.26 1018.21
1014.18 1013.83 1012.95 1011.65 1010.10 1008.71 1006.22 1005.09 1004.80 1005.10 1005.53 1006.03 1006.41 1007.21 1007.93 1008.56 1009.22 1009.92 1010.63 1011.30 1011.93 1012.63 1013.27 1013.78 1014.29 1014.74 1015.05 1015.54 1016.13 1016.53 1016.83 1017.10 1017.13 1017.09 1017.09 1017.05 1017.04 1016.91 1016.80 1016.86 1017.06 1017.07 1017.13 1017.21 1017.39 1017.48 1017.42 1017.52 1017.49
1014.67 1014.05 1013.15 1012.00 1009.73 1007.56 1004.96 1004.25 1003.28 1004.39 1004.71 1005.55 1006.12 1006.78 1007.48 1008.15 1008.86 1009.49 1010.15 1010.81 1011.38 1012.00 1012.64 1013.17 1013.61 1013.97 1014.40 1014.93 1015.42 1015.73 1015.98 1016.11 1016.26 1016.42 1016.45 1016.42 1016.33 1016.34 1016.44 1016.58 1016.54 1016.47 1016.51 1016.56 1016.61 1016.55 1016.56 1016.67 1016.63
1014.36 1013.52 1012.82 1011.82 1009.73 1007.42 1005.26 1003.16 1002.88 1003.03 1003.72 1004.35 1005.25 1006.07 1006.81 1007.59 1008.29 1008.96 1009.63 1010.30 1010.94 1011.52 1012.15 1012.68 1013.12 1013.44 1013.82 1014.37 1014.73 1015.07 1015.26 1015.39 1015.54 1015.60 1015.65 1015.67 1015.65 1015.73 1015.75 1015.77 1015.77 1015.79 1015.73 1015.79 1015.82 1015.88 1016.02 1016.05 1015.95
1012.92 1012.06 1011.62 1010.49 1009.34 1008.17 1006.77 1004.12 1003.29 1003.13 1003.05 1003.90 1004.72 1005.45 1006.22 1006.98 1007.71 1008.34 1009.04 1009.80 1010.39 1010.94 1011.48 1011.95 1012.40 1012.84 1013.21 1013.59 1014.02 1014.33 1014.55 1014.79 1014.86 1014.92 1014.92 1014.96 1015.05 1015.09 1015.12 1015.13 1015.13 1015.09 1015.11 1015.25 1015.29 1015.23 1015.27 1015.23 1015.12
Wind_Speed
14 9 4 5 7 5 3 5 1 4 2 5 4 7 10 11 10 6 7 6 12 10 13 11 10 10 7 7 10 8 8 9 11 12 12 11 12 12 13 14 14 15 15 15 14 16 17 16 16
10 9 4 5 7 6 8 3 7 7 7 5 1 2 0 8 10 11 10 8 11 10 9 12 10 10 7 8 8 7 9 8 9 9 11 10 11 10 12 12 12 13 13 13 14 14 15 15 14
11 7 8 4 4 6 6 5 7 8 5 1 1 3 4 8 5 10 12 11 10 8 9 13 9 10 6 8 8 6 8 7 7 9 8 9 10 10 11 12 12 12 12 13 14 13 14 14 14
5 5 6 8 6 5 4 7 7 6 3 0 2 6 5 7 5 6 12 11 10 9 10 12 9 10 6 6 7 7 6 5 6 7 8 9 9 10 11 11 11 12 12 12 13 13 13 13 14
6 5 8 6 1 1 4 7 4 3 4 3 1 6 4 6 6 10 12 10 10 9 10 12 9 8 8 7 7 7 6 4 6 5 7 7 8 8 9 9 9 10 10 11 12 12 11 12 13
6 5 8 8 6 3 6 5 3 1 3 6 4 2 7 10 9 9 11 10 9 9 7 12 10 8 7 8 7 6 5 4 3 5 5 6 7 6 6 7 8 8 8 9 10 10 10 11 12
10 7 11 6 1 6 4 5 3 2 2 4 3 1 6 10 9 9 11 10 9 9 7 7 11 9 6 8 6 6 5 4 3 4 3 5 6 5 5 6 8 8 8 8 9 8 9 9 10
6 5 6 6 5 4 5 5 2 3 7 3 2 3 6 11 10 11 11 10 9 8 7 7 6 8 9 11 7 5 3 2 3 3 2 2 2 2 1 5 7 6 7 7 7 7 7 7 7
2 7 7 5 4 6 7 6 3 2 4 4 5 3 8 15 12 12 11 10 9 8 7 7 7 6 5 5 9 6 5 3 3 5 5 6 5 2 3 6 4 4 4 5 4 4 4 3 0
7 8 1 6 4 1 6 6 6 6 7 7 7 9 8 14 13 13 13 12 11 11 10 7 7 7 6 4 6 5 5 6 5 4 3 3 2 2 5 0 2 2 1 3 2 3 6 9 2
3 6 6 4 4 2 2 5 4 7 7 7 8 13 12 13 13 13 13 13 13 12 9 9 8 7 7 5 4 3 3 3 3 4 4 3 3 4 4 2 4 3 6 4 5 5 4 5 3
6 1 3 3 2 2 4 2 6 10 8 3 2 1 14 15 14 14 14 13 13 13 12 11 10 9 8 5 5 5 4 4 4 3 4 4 3 3 3 3 2 3 2 3 3 3 3 5 5
4 3 1 3 2 3 2 8 8 9 8 7 4 6 11 12 13 13 12 12 12 13 13 12 11 10 8 8 5 5 5 4 5 4 5 4 4 4 3 4 3 3 3 4 4 4 4 6 6
2 2 3 4 4 3 5 7 2 3 5 10 11 11 11 13 13 12 12 13 13 12 13 13 13 11 10 8 8 5 5 5 5 4 5 6 5 4 4 4 4 4 4 4 4 4 5 5 6
2 5 5 7 5 3 4 11 11 8 7 8 11 12 13 13 13 14 13 13 13 12 12 13 13 12 11 10 8 6 6 5 6 5 7 7 6 6 6 5 5 5 4 5 6 6 5 6 6
5 6 9 7 5 5 4 4 9 8 9 9 10 11 13 14 13 13 13 13 12 12 13 13 11 12 12 10 8 7 7 6 7 7 6 8 8 8 7 6 6 5 5 5 6 5 6 6 7
8 3 3 7 5 1 7 7 8 8 9 9 9 10 11 13 14 14 13 13 13 13 13 13 13 13 12 11 9 9 9 7 7 7 7 8 9 9 8 7 7 7 5 6 6 6 6 7 7
3 4 3 4 6 7 10 14 12 12 13 13 13 12 12 13 15 13 14 13 13 12 12 13 11 13 12 9 9 7 8 8 8 8 8 10 8 10 9 8 8 7 6 7 6 8 7 7 7
5 5 6 2 4 5 9 11 11 10 12 12 12 12 13 14 13 13 14 14 14 13 13 13 13 13 10 9 9 8 8 8 8 8 12 11 10 11 10 8 9 8 8 9 8 7 8 6 7
5 7 6 2 1 4 10 14 13 11 11 10 9 11 13 13 13 12 13 15 15 15 15 14 14 13 11 8 8 8 7 7 7 7 10 11 13 12 11 11 9 10 7 9 9 8 6 7 6
6 7 7 6 9 13 11 13 12 11 9 8 8 8 10 13 14 15 15 15 15 15 16 15 15 15 13 13 8 6 6 5 6 7 7 9 12 12 12 12 11 10 9 7 8 8 9 7 6
9 4 3 5 7 3 2 5 11 14 12 11 11 11 10 11 11 13 15 15 16 15 12 15 14 15 13 14 11 13 9 8 8 8 7 8 12 12 12 13 12 12 8 10 9 9 9 8 8
4 1 4 5 8 9 10 6 3 13 11 12 12 11 9 10 12 14 13 14 14 13 13 12 13 13 12 12 12 9 11 8 7 6 8 8 8 10 12 13 13 12 10 10 11 10 10 8 9
3 5 7 5 5 7 11 9 8 10 15 13 12 11 10 10 11 11 12 12 12 11 10 10 13 13 12 12 12 13 12 10 7 7 7 7 7 7 11 11 11 11 11 12 10 11 12 10 10
7 7 4 5 6 3 3 6 9 7 7 13 14 13 12 11 11 12 12 11 11 11 11 10 12 13 13 13 12 12 12 11 11 10 8 8 7 7 8 10 10 9 11 11 10 11 12 11 11
13 8 6 5 3 3 4 8 3 5 9 8 12 12 12 11 10 11 12 11 12 12 12 12 12 12 12 13 12 10 11 7 8 10 9 7 7 7 7 7 9 10 11 10 11 9 10 11 11
7 8 4 6 3 5 6 8 6 8 11 12 13 12 12 12 11 11 11 11 11 12 13 13 12 11 12 11 9 10 10 10 9 10 8 7 8 7 8 8 8 9 10 11 10 9 11 11 11
6 5 4 6 5 6 8 7 5 15 18 16 16 15 13 12 12 11 11 11 10 10 11 11 11 11 10 9 9 8 10 10 9 8 9 9 8 8 8 8 9 9 10 10 11 10 11 12 10
7 7 7 5 5 4 3 3 5 14 19 20 18 16 15 14 13 12 11 11 11 10 10 10 10 10 9 9 9 9 8 8 7 7 7 8 8 8 9 9 9 10 11 11 10 12 11 12 12
10 13 16 6 6 5 3 6 1 3 13 16 17 16 15 14 13 12 12 12 12 12 11 11 11 11 9 9 9 8 6 5 6 7 8 7 8 8 9 9 9 10 10 10 11 11 11 12 13
Wind_Direction
282 279 312 252 256 246 81 78 49 61 115 49 36 354 20 32 5 32 130 128 126 129 121 133 112 98 86 66 71 59 75 43 50 49 45 46 46 42 44 47 41 41 45 46 41 53 42 38 33
305 307 246 274 264 276 92 94 66 51 75 58 65 301 139 75 62 109 147 145 141 129 127 123 111 101 93 73 81 63 65 45 57 55 53 48 56 46 49 46 48 39 36 52 46 45 50 41 38
278 282 269 282 277 352 32 56 93 94 93 28 144 353 16 70 74 133 100 151 133 132 114 102 110 106 97 89 79 74 73 48 65 61 56 51 47 47 45 40 36 52 29 37 47 41 48 38 35
305 214 232 254 305 79 16 94 101 125 124 50 349 115 117 37 128 102 137 144 140 132 126 119 130 117 121 103 99 89 81 61 60 45 67 56 43 49 41 37 35 33 35 36 41 43 40 38 32
242 262 263 246 166 76 81 98 129 116 103 128 268 92 79 118 110 123 142 153 140 143 125 133 135 125 125 115 111 100 94 86 61 77 66 58 45 46 41 37 33 34 43 36 34 41 41 37 32
247 271 251 245 157 114 121 135 132 51 106 100 210 134 88 120 151 140 151 153 150 139 144 130 134 144 130 124 119 113 107 102 82 88 87 65 58 43 47 33 21 33 38 36 33 26 42 36 35
254 234 262 306 159 185 138 149 209 102 118 107 22 243 90 155 149 156 160 156 153 146 156 148 154 151 146 133 133 127 116 111 120 112 92 80 68 39 48 24 25 24 24 28 28 30 27 39 38
277 277 246 240 189 192 123 161 31 251 82 95 278 196 143 143 151 161 162 161 160 152 167 164 162 169 169 154 149 143 129 131 146 134 95 111 225 169 187 277 34 30 19 18 30 29 22 26 34
257 249 227 190 219 114 143 198 149 66 186 202 170 328 96 133 155 164 170 173 171 174 181 178 178 177 173 173 136 166 175 180 184 178 188 238 245 191 223 74 20 6 17 13 14 15 357 299 244
242 240 275 42 45 157 167 231 146 217 196 200 188 123 141 151 170 177 185 187 188 186 188 188 193 188 185 195 171 208 156 213 201 217 225 279 298 24 325 41 191 246 263 248 241 257 260 255 302
180 301 100 95 48 349 187 226 214 231 242 237 207 181 172 178 186 193 194 196 193 190 190 192 191 197 191 208 199 201 208 210 223 232 243 279 283 237 214 233 193 211 188 235 215 211 243 312 313
220 66 10 115 93 229 240 294 239 234 255 78 217 167 170 191 195 203 200 198 191 190 189 189 193 195 203 208 203 212 210 206 225 219 229 248 243 257 270 260 281 251 268 285 266 295 295 278 256
247 146 171 126 190 249 292 252 263 261 231 191 203 188 187 199 203 202 205 199 196 190 189 194 192 205 204 209 214 221 223 211 233 215 222 243 248 259 263 250 244 251 260 262 273 277 286 278 286
85 193 161 187 197 224 259 256 274 200 211 220 194 210 208 208 203 198 203 200 200 199 188 194 196 200 206 215 212 228 227 233 242 238 240 228 242 256 249 255 252 260 253 270 268 282 285 284 279
184 217 194 208 211 242 281 249 228 231 186 201 208 217 213 206 205 209 200 207 201 199 197 197 195 196 210 214 221 216 240 239 242 238 238 240 242 253 256 259 259 259 271 264 266 262 264 268 266
230 234 214 141 194 145 236 95 188 168 195 219 214 207 204 209 210 208 202 204 204 200 196 195 197 204 200 215 214 227 225 229 238 239 236 237 234 240 250 258 260 253 257 262 269 271 274 273 270
202 283 219 160 204 249 228 317 143 190 212 229 224 214 206 208 209 211 205 202 201 205 196 197 195 204 208 208 219 220 229 231 233 240 239 237 237 236 238 248 251 251 245 248 253 259 260 271 277
23 263 178 282 136 230 253 261 262 206 221 239 242 233 212 208 209 203 202 201 201 201 207 197 201 204 205 208 217 223 232 233 238 240 239 238 234 234 237 244 245 250 243 245 247 252 261 267 280
323 297 283 291 93 284 254 265 262 245 224 237 241 231 215 209 202 191 190 195 199 203 203 206 202 204 203 205 211 220 226 231 234 231 239 235 235 230 230 236 243 236 238 244 244 249 253 254 257
289 292 289 268 44 271 286 279 266 240 222 229 231 217 213 203 190 183 186 192 198 201 202 206 206 205 203 211 213 221 228 231 236 223 232 232 234 231 230 228 233 236 237 235 244 248 253 257 252
248 289 324 311 317 245 282 262 220 204 203 206 221 229 206 203 199 188 192 196 196 205 200 204 206 205 206 208 211 217 243 255 260 244 243 235 231 229 227 232 231 233 232 235 234 232 233 248 250
285 52 299 301 305 309 296 314 189 173 201 202 206 196 203 204 213 203 190 197 197 203 201 200 203 206 207 204 213 216 222 229 226 229 229 225 232 234 230 233 233 238 232 230 232 231 229 227 247
27 11 294 296 287 302 209 250 160 177 202 199 198 179 186 187 194 202 201 195 200 194 196 199 200 202 204 204 209 219 226 240 242 244 241 235 238 233 235 232 236 237 236 238 233 230 230 225 234
100 240 237 263 268 247 213 229 186 184 210 189 179 171 172 180 182 189 190 192 194 183 187 191 200 204 203 204 208 220 231 235 244 239 243 246 240 235 232 237 241 241 239 235 234 236 235 230 229
218 245 216 210 201 263 137 214 285 147 191 182 175 175 174 176 179 180 177 180 185 181 188 194 204 207 204 208 214 218 231 241 250 254 253 255 248 237 234 228 232 240 242 247 243 238 235 232 234
203 251 276 276 228 111 170 228 212 195 163 171 172 169 172 181 181 180 183 183 188 187 190 194 199 208 206 208 215 220 227 231 240 244 250 258 257 258 256 239 226 240 245 240 238 244 242 241 238
151 218 12 289 217 267 203 227 209 182 180 176 175 173 188 187 182 181 180 186 187 190 192 196 198 205 206 208 208 217 226 232 244 251 252 251 254 261 261 257 254 244 241 244 238 238 240 236 237
268 359 195 213 248 239 202 249 237 186 193 188 189 192 192 188 183 183 183 183 187 190 190 193 194 199 202 202 209 218 224 230 237 245 252 255 254 248 250 251 247 246 247 241 236 238 239 241 241
188 221 224 300 266 277 295 202 27 197 198 192 193 192 191 188 189 187 188 184 184 183 183 187 189 195 193 196 203 210 218 225 235 244 252 256 258 258 254 248 243 244 242 241 240 239 242 244 244
279 227 219 245 194 253 324 283 27 307 194 195 194 191 194 191 192 190 187 182 183 186 186 186 184 186 189 188 193 198 203 212 232 247 255 257 261 259 255 255 255 252 247 245 245 248 245 245 246